Stafford, VA

10:59 AM EDT on March 25, 2017 (GMT -0400)
Stafford

Weather History for KRMN - March, 2013

Change the Weather History Date:

Wednesday, March 6, 2013

  Actual Average (KNYG) Record (KNYG)
Temperature  
Mean Temperature 36 °F -  
Max Temperature 38 °F 49 °F 72 °F (2004)
Min Temperature 33 °F 32 °F 14 °F (2015)
Degree Days  
Heating Degree Days 30    
Moisture  
Dew Point 34 °F    
Average Humidity 94    
Maximum Humidity 99    
Minimum Humidity 78    
Precipitation  
Precipitation 1.04 in - - ()
Sea Level Pressure  
Sea Level Pressure 29.76 in    
Wind  
Wind Speed 12 mph (North)    
Max Wind Speed 29 mph    
Max Gust Speed 40 mph    
Visibility 5 miles    
Events Rain , Snow , Thunderstorm    
Averages and records for this station are not official NWS values.
T = Trace of Precipitation, MM = Missing Value Source: NWS Daily Summary

Daily Weather History Graph

Daily Weather History Graph

Search for Another Location

Airport or City:

Trip Planner

Search our weather history database for the weather conditions in past years. The results will help you decide how hot, cold, wet, or windy it might be!

Date:

Astronomy

Mar. 06, 2013 Rise Set
Actual Time 6:34 AM EST 6:08 PM EST
Civil Twilight 6:07 AM EST 6:34 PM EST
Nautical Twilight 5:37 AM EST 7:05 PM EST
Astronomical Twilight 5:06 AM EST 7:36 PM EST
Moon 2:38 AM EST (3/6) 12:51 PM EST (3/6)
Length of Visible Light 12h 26m
Length of Day
11h 34m
Waning Crescent, 30% of the Moon is Illuminated
Mar 6
Waning Crescent
Mar 11
New
Mar 19
First Quarter
Mar 27
Full
Apr 3
Last Quarter

Hourly Weather History & Observations

Time (EST) Temp. Windchill Dew Point Humidity Pressure Visibility Wind Dir Wind Speed Gust Speed Precip Events Conditions
12:15 AM 33.4 °F 25.9 °F 33.1 °F 99% 29.80 in 1.5 mi ENE 9.2 mph - 0.01 in Snow Light Snow
12:35 AM 33.4 °F 26.6 °F 33.1 °F 99% 29.79 in 1.8 mi ENE 8.1 mph - 0.01 in Snow Light Snow
12:55 AM 33.4 °F 25.4 °F 33.1 °F 99% 29.76 in 1.2 mi NE 10.4 mph - 0.01 in Snow Light Snow
1:15 AM 33.3 °F 25.1 °F 32.9 °F 99% 29.75 in 0.8 mi ENE 10.4 mph - N/A Snow Snow
1:35 AM 33.4 °F 26.6 °F 33.1 °F 99% 29.75 in 1.5 mi ENE 8.1 mph - N/A Snow Light Snow
1:55 AM 33.3 °F 27.9 °F 32.9 °F 99% 29.75 in 1.5 mi ENE 5.8 mph - N/A Snow Light Snow
2:15 AM 33.3 °F 27.1 °F 32.9 °F 99% 29.72 in 1.2 mi NE 6.9 mph - N/A Snow Snow
2:35 AM 33.3 °F 25.7 °F 32.9 °F 99% 29.69 in 1.2 mi NE 9.2 mph - N/A Snow Snow
2:55 AM 33.3 °F 27.9 °F 32.9 °F 99% 29.68 in 1.8 mi NE 5.8 mph - N/A Snow Light Snow
3:15 AM 33.4 °F 27.3 °F 33.1 °F 99% 29.67 in 2.5 mi NE 6.9 mph - N/A   Overcast
3:35 AM 33.8 °F 26.4 °F 33.1 °F 97% 29.66 in 4.0 mi NE 9.2 mph - N/A   Overcast
3:55 AM 33.8 °F 27.0 °F 33.1 °F 97% 29.64 in 2.5 mi NE 8.1 mph - N/A Snow Light Snow
4:15 AM 33.8 °F 25.8 °F 33.1 °F 97% 29.64 in 2.5 mi NE 10.4 mph - N/A Snow Light Snow
4:35 AM 33.4 °F 25.4 °F 33.1 °F 99% 29.62 in 1.0 mi NE 10.4 mph - N/A Snow Light Snow
4:55 AM 33.8 °F 27.0 °F 33.1 °F 97% 29.61 in 3.0 mi NNE 8.1 mph - N/A Snow Light Snow
5:15 AM 33.8 °F 27.0 °F 33.1 °F 97% 29.60 in 1.2 mi NNE 8.1 mph 16.1 mph N/A Snow Light Snow
5:35 AM 33.8 °F 27.0 °F 33.3 °F 98% 29.60 in 5.0 mi NNE 8.1 mph 16.1 mph N/A Snow Light Snow
5:55 AM 34.0 °F 26.6 °F 33.3 °F 97% 29.59 in 3.0 mi NNE 9.2 mph 17.3 mph N/A Snow Light Snow
6:15 AM 33.8 °F 27.0 °F 33.1 °F 97% 29.59 in 1.5 mi NNE 8.1 mph 17.3 mph N/A Snow , Thunderstorm Light Thunderstorms and Snow
6:35 AM 33.8 °F 25.8 °F 33.1 °F 97% 29.58 in 3.0 mi NNE 10.4 mph 17.3 mph N/A Snow , Thunderstorm Light Thunderstorms and Snow
6:55 AM 33.8 °F 24.8 °F 33.3 °F 98% 29.59 in 3.0 mi North 12.7 mph 18.4 mph N/A Snow Light Snow
7:15 AM 33.8 °F 25.3 °F 33.3 °F 98% 29.58 in 1.2 mi North 11.5 mph 18.4 mph N/A Snow Light Snow
7:35 AM 33.8 °F 25.3 °F 33.3 °F 98% 29.59 in 1.8 mi North 11.5 mph - N/A Snow Light Snow
7:55 AM 34.0 °F 25.0 °F 33.4 °F 98% 29.59 in 1.8 mi North 12.7 mph 19.6 mph N/A Snow Light Snow
8:15 AM 34.0 °F 25.5 °F 33.3 °F 97% 29.59 in 1.2 mi North 11.5 mph 20.7 mph 0.02 in Snow Light Snow
8:35 AM 34.7 °F 26.4 °F 33.8 °F 97% 29.59 in 1.8 mi North 11.5 mph 17.3 mph 0.04 in Snow Light Snow
8:55 AM 34.7 °F 24.7 °F 33.8 °F 97% 29.59 in 1.2 mi North 16.1 mph - 0.11 in Snow Light Snow
9:15 AM 34.0 °F 25.5 °F 33.1 °F 96% 29.60 in 0.8 mi North 11.5 mph - 0.01 in Snow Light Snow
9:35 AM 33.8 °F 24.8 °F 33.3 °F 98% 29.60 in 1.5 mi North 12.7 mph - 0.04 in Snow Light Snow
9:55 AM 34.5 °F 25.7 °F 33.6 °F 97% 29.59 in 1.5 mi North 12.7 mph 19.6 mph 0.09 in Snow Light Snow
10:15 AM 34.2 °F 24.4 °F 33.4 °F 97% 29.59 in 1.0 mi North 15.0 mph 20.7 mph 0.02 in Snow Light Snow
10:35 AM 34.7 °F 25.5 °F 33.8 °F 97% 29.60 in 1.5 mi North 13.8 mph 20.7 mph 0.08 in Snow Light Snow
10:55 AM 34.2 °F 25.7 °F 33.4 °F 97% 29.60 in 0.8 mi North 11.5 mph 19.6 mph 0.10 in Snow Light Snow
11:15 AM 34.7 °F 25.5 °F 33.8 °F 97% 29.60 in 1.5 mi North 13.8 mph 24.2 mph 0.05 in Snow Light Snow
11:35 AM 34.7 °F 24.3 °F 33.6 °F 96% 29.61 in 1.8 mi North 17.3 mph 24.2 mph 0.11 in Snow Light Snow
11:55 AM 35.1 °F 24.5 °F 33.8 °F 95% 29.62 in 5.0 mi North 18.4 mph 26.5 mph 0.19 in Snow Light Snow
12:15 PM 35.6 °F 25.9 °F 34.0 °F 94% 29.63 in 7.0 mi North 16.1 mph 27.6 mph 0.08 in Rain Rain
12:35 PM 36.0 °F 24.7 °F 34.3 °F 94% 29.64 in 7.0 mi North 21.9 mph 29.9 mph 0.15 in Rain Light Rain
12:55 PM 36.5 °F 24.4 °F 34.3 °F 92% 29.65 in 10.0 mi North 26.5 mph 36.8 mph 0.21 in Rain Light Rain
1:15 PM 36.3 °F 25.2 °F 34.2 °F 92% 29.66 in 10.0 mi North 21.9 mph 36.8 mph 0.06 in Rain Light Rain
1:35 PM 36.0 °F 23.5 °F 34.0 °F 93% 29.67 in 7.0 mi NNW 27.6 mph 35.7 mph 0.11 in Rain Light Rain
1:55 PM 36.0 °F 23.9 °F 33.8 °F 92% 29.69 in 7.0 mi NNW 25.3 mph 33.4 mph 0.14 in Rain Light Rain
2:15 PM 35.6 °F 24.5 °F 33.8 °F 93% 29.70 in 7.0 mi NNW 20.7 mph 31.1 mph 0.02 in Rain Light Rain
2:35 PM 35.6 °F 24.0 °F 34.0 °F 94% 29.72 in 5.0 mi NNW 23.0 mph 40.3 mph 0.04 in Rain Light Rain
2:55 PM 35.6 °F 24.0 °F 33.8 °F 93% 29.74 in 4.0 mi NNW 23.0 mph 32.2 mph 0.06 in Snow Snow
3:15 PM 35.2 °F 23.0 °F 33.8 °F 94% 29.75 in 3.0 mi NNW 25.3 mph 35.7 mph 0.02 in Rain Rain
3:35 PM 35.6 °F 24.0 °F 34.2 °F 94% 29.77 in 4.0 mi NNW 23.0 mph 35.7 mph 0.05 in Rain Light Rain
4:15 PM 36.1 °F 25.5 °F 34.7 °F 94% 29.81 in 4.0 mi NNW 19.6 mph 34.5 mph 0.01 in Rain Light Rain
4:35 PM 36.5 °F 24.0 °F 34.9 °F 94% 29.84 in 4.0 mi NNW 28.8 mph 34.5 mph 0.04 in Rain Light Rain
4:55 PM 37.0 °F 25.4 °F 35.2 °F 93% 29.86 in 4.0 mi NNW 25.3 mph 38.0 mph 0.06 in Rain Light Rain
5:15 PM 37.9 °F 27.6 °F 35.6 °F 91% 29.88 in 7.0 mi North 20.7 mph 32.2 mph N/A Rain Light Rain
5:35 PM 37.0 °F 26.2 °F 34.9 °F 92% 29.90 in 5.0 mi NNW 21.9 mph 33.4 mph 0.01 in Rain Light Rain
5:55 PM 36.9 °F 25.6 °F 34.7 °F 92% 29.92 in 10.0 mi NNW 23.0 mph 31.1 mph 0.01 in Rain Light Rain
6:15 PM 37.0 °F 26.4 °F 34.9 °F 92% 29.93 in 10.0 mi NNW 20.7 mph 28.8 mph 0.01 in Rain Light Rain
6:35 PM 37.6 °F 27.7 °F 35.1 °F 91% 29.95 in 10.0 mi NNW 18.4 mph 27.6 mph 0.01 in   Light Drizzle
6:55 PM 37.4 °F 27.5 °F 35.1 °F 91% 29.96 in 10.0 mi NNW 18.4 mph 24.2 mph 0.01 in   Overcast
7:15 PM 37.6 °F 28.8 °F 35.1 °F 91% 29.97 in 10.0 mi NNW 15.0 mph 20.7 mph N/A Rain Light Rain
7:35 PM 37.8 °F 30.2 °F 35.1 °F 90% 29.98 in 10.0 mi NNW 11.5 mph - N/A   Overcast
7:55 PM 37.9 °F 30.5 °F 35.2 °F 90% 29.98 in 10.0 mi NNW 11.5 mph - N/A   Overcast
8:15 PM 37.4 °F 28.9 °F 34.7 °F 90% 29.98 in 10.0 mi NNW 13.8 mph - N/A   Overcast
8:35 PM 37.6 °F 29.1 °F 34.3 °F 88% 29.99 in 10.0 mi NNW 13.8 mph - N/A   Overcast
8:55 PM 37.8 °F 30.2 °F 34.2 °F 87% 30.00 in 10.0 mi NNW 11.5 mph - N/A   Overcast
9:15 PM 38.1 °F 32.3 °F 34.2 °F 86% 30.00 in 10.0 mi NNW 8.1 mph - N/A   Scattered Clouds
9:35 PM 37.4 °F 30.8 °F 33.8 °F 87% 30.00 in 10.0 mi NNW 9.2 mph - N/A   Scattered Clouds
9:55 PM 36.7 °F 29.4 °F 33.1 °F 87% 30.00 in 10.0 mi NNW 10.4 mph - N/A   Clear
10:15 PM 36.0 °F 29.0 °F 32.7 °F 88% 30.02 in 10.0 mi NW 9.2 mph - N/A   Clear
10:35 PM 35.6 °F 28.0 °F 32.0 °F 87% 30.02 in 10.0 mi NW 10.4 mph - N/A   Clear
10:55 PM 36.5 °F 28.7 °F 32.0 °F 84% 30.03 in 10.0 mi NW 11.5 mph - N/A   Clear
11:15 PM 36.7 °F 28.9 °F 31.8 °F 83% 30.03 in 10.0 mi NW 11.5 mph - N/A   Clear
11:35 PM 36.7 °F 29.4 °F 31.6 °F 82% 30.03 in 10.0 mi NNW 10.4 mph - N/A   Clear
11:55 PM 38.3 °F 30.5 °F 32.0 °F 78% 30.03 in 10.0 mi NNW 12.7 mph - N/A   Clear